Location: Clanezzo
(45.7500°N, 9.6000°E)
Time: 13:13:09
(UTC+00:00)

Envisat - Pass Details

Date: 19 January 2022
Orbit: 764 x 765 km, 98.2° (Epoch: 17 May)

Event Time Altitude Azimuth Distance (km) Brightness Sun altitude
Rises 16:35:53 0° 208° (SSW) 3,217 7.2 -5.0°
Reaches altitude 10° 16:38:53 10° 226° (SW) 2,297 6.9 -5.5°
Maximum altitude 16:42:20 18° 270° (W) 1,796 6.1 -6.1°
Drops below altitude 10° 16:45:49 10° 313° (NW) 2,308 5.8 -6.6°
Sets 16:48:51 0° 332° (NNW) 3,240 6.3 -7.1°
